Weather in Hemel Hempstead

United Kingdom     51°45′05″N   0°25′47″E
temp.,
°C
wind,
m/s
gust,
m/s
humid.,
%
clouds,
%
prec.,
mm/h
press.,
hPa
HPBL,
m
28 january, thu
thu2800:00+7se4699100 4.9 1006158
03:00+7ssw3899100 4.2 1003226
06:00+10w71695100 6.9 1000647
09:00+10w9169394 0.2 1001938
12:00+11w9138376 0.3 10021005
15:00+10wsw6118585 0.1 1003840
18:00+9sw5129593 0.1 1002447
21:00+9ssw51296100 0.3 998546
29 january, fri
fri2900:00+9wsw61394100 2.4 997703
03:00+7w8179237 0.0 996715
06:00+8wsw8148752 0.1 996972
09:00+6w269792 4.8 996376
12:00+9wnw698274 4.9 998866
15:00+9nw7118354 0.1 1000966
18:00+6w499244 0.1 1003268
21:00+5nw2295100 0.0 100431
30 january, sat
sat3000:00+5e5893100 0.0 1003374
03:00+4ese71294100 1.1 999503
06:00+4e91496100 5.9 995607
09:00+3ese91495100 4.7 994582
12:00+4e91494100 6.9 994536
15:00+4e81494100 1.5 992512
18:00+4e81395100 3.9 993552
21:00+4ene91395100 1.4 994512
31 january, sun
sun3100:00+3ene91492100 1.6 995508
03:00+2ene61193100 0.0 996511
06:00+2ene6995100 0.0 996455
09:00+2ene61094100 0.0 995487
12:00+3ene5890100 0.0 995550
15:00+3ene5889100 0.0 992501
18:00+2ne4792100 0.0 993513
21:00+2ne4793100 0.0 994434
1 february, mon
mon100:00+1ne4887100 0.0 997462
03:000nne368597 0.0 998170
06:000ene367898 0.0 1000209
09:00+1e377582 0.0 1001283
12:00+4se467588 0.0 1003490
15:00+3se4891100 0.9 1002415
18:00+3sse4895100 1.2 1001298
21:00+4sse479999 0.0 1000191